Location: Banksville Park
(38.5557°N, 75.1182°W)
Time: 11:37:49
(UTC+00:00)

CENTAUR R/B - Pass Details

Date: 21 January 2021
Orbit: 742 x 1446 km, 63.5° (Epoch: 02 March)

Event Time Altitude Azimuth Distance (km) Brightness Sun altitude
Rises 09:58:21 0° 154° (SSE) 3,293 5.7 -26.3°
Reaches altitude 10° 10:02:20 10° 124° (SE) 2,482 5.4 -25.5°
Maximum altitude 10:04:26 12° 102° (ESE) 2,406 5.6 -25.1°
Drops below altitude 10° 10:06:38 10° 80° (E) 2,635 5.7 -24.7°
Sets 10:11:12 0° 53° (NE) 3,765 6.2 -23.8°
